Tracking 20715 objects as of 27-May-2020
HD Live streaming from Space Station
objects crossing your sky now

IRIDIUM 33 DEB

Track IRIDIUM 33 DEB now!
10-day predictions


NORAD ID: 36490
Int'l Code: 1997-051WG
Perigee: 741.4 km
Apogee: 746.4 km
Inclination: 86.4 °
Period: 99.5 minutes
Semi major axis: 7114 km
RCS: 0.0086 m2 (small)
Launch date: September 14, 1997
Source: United States (US)
Launch site: TYURATAM MISSILE AND SPACE COMPLEX (TTMTR)

Note: This is SATELLITE DEBRIS
aabbcc
Your satellite tracking list
Your tracking list is empty




NASA's NSSDC Master Catalog

Two Line Element Set (TLE):
1 36490U 97051WG  20143.52970163  .00000575  00000-0  15385-3 0  9999
2 36490  86.3799 172.8047 0003498  70.0855 290.0724 14.46611983569708
Source of the keplerian elements: AFSPC